• In Uzbekistan
  • List of Countries
  • For 7 days
  • Water Temperature
  • Satellite Maps
  • Weather Map
  • Weather Widgets
  • user-avatar
    Login

    Hourly Weather Klagenfurt

    Today, 24 February, Friday

    Time Temperature Precipitation Wind Pressure Humidity
    00:00 +2°C° 0 mm 3 mps 682 mmHg 94%
    01:00 +3°C° 0 mm 3 mps 681 mmHg 95%
    02:00 +2°C° 0 mm 3 mps 681 mmHg 95%
    03:00 +2°C° 0 mm 3 mps 681 mmHg 95%
    04:00 +2°C° 0 mm 3 mps 681 mmHg 96%
    05:00 +3°C° 0 mm 2 mps 681 mmHg 96%
    06:00 +3°C° 0 mm 2 mps 681 mmHg 96%
    07:00 +3°C° 0 mm 2 mps 681 mmHg 96%
    08:00 +3°C° 0.2 mm 2 mps 681 mmHg 94%
    09:00 +5°C° 0.2 mm 1 mps 682 mmHg 92%
    10:00 +6°C° 0.2 mm 1 mps 682 mmHg 91%
    11:00 +6°C° 1 mm 1 mps 682 mmHg 91%
    12:00 +5°C° 1 mm 1 mps 682 mmHg 91%
    13:00 +5°C° 1 mm 1 mps 682 mmHg 92%
    14:00 +5°C° 1.9 mm 1 mps 683 mmHg 92%
    15:00 +4°C° 1.9 mm 1 mps 683 mmHg 93%
    16:00 +4°C° 1.9 mm 1 mps 683 mmHg 93%
    17:00 +3°C° 2.4 mm 1 mps 683 mmHg 94%
    18:00 +3°C° 2.4 mm 1 mps 684 mmHg 94%
    19:00 +1°C° 2.4 mm 2 mps 684 mmHg 95%
    20:00 +1°C° 1.2 mm 2 mps 685 mmHg 95%
    21:00 -1°C° 1.2 mm 2 mps 686 mmHg 95%
    22:00 -1°C° 1.2 mm 2 mps 687 mmHg 96%
    23:00 -1°C° 0.5 mm 2 mps 687 mmHg 96%

    Tomorrow, 25 February, Saturday

    Time Temperature Precipitation Wind Pressure Humidity
    00:00 -1°C° 0.5 mm 2 mps 688 mmHg 95%
    01:00 -1°C° 0.5 mm 2 mps 688 mmHg 95%
    02:00 -2°C° 0.1 mm 2 mps 688 mmHg 95%
    03:00 -3°C° 0.1 mm 2 mps 689 mmHg 96%
    04:00 -4°C° 0.1 mm 2 mps 689 mmHg 96%
    05:00 -4°C° 0 mm 2 mps 689 mmHg 96%
    06:00 -5°C° 0 mm 2 mps 690 mmHg 96%
    07:00 -3°C° 0 mm 1 mps 690 mmHg 96%
    08:00 -2°C° 0 mm 1 mps 691 mmHg 93%
    09:00 0°C° 0 mm 1 mps 691 mmHg 90%
    10:00 +1°C° 0 mm 1 mps 692 mmHg 87%
    11:00 +2°C° 0 mm 1 mps 692 mmHg 84%
    12:00 +3°C° 0 mm 1 mps 692 mmHg 82%
    13:00 +4°C° 0 mm 1 mps 692 mmHg 79%
    14:00 +4°C° 0 mm 1 mps 692 mmHg 81%
    15:00 +3°C° 0 mm 1 mps 692 mmHg 82%
    16:00 +3°C° 0 mm 1 mps 692 mmHg 84%
    17:00 +1°C° 0 mm 1 mps 692 mmHg 88%
    18:00 -1°C° 0 mm 1 mps 691 mmHg 91%
    19:00 -4°C° 0 mm 1 mps 691 mmHg 95%
    20:00 -4°C° 0 mm 1 mps 691 mmHg 95%
    21:00 -4°C° 0 mm 1 mps 691 mmHg 95%
    22:00 -4°C° 0 mm 1 mps 692 mmHg 94%
    23:00 -4°C° 0 mm 1 mps 691 mmHg 94%

    Day after tomorrow, 26 February, Sunday

    Time Temperature Precipitation Wind Pressure Humidity
    00:00 -4°C° 0 mm 1 mps 691 mmHg 93%
    01:00 -4°C° 0 mm 1 mps 691 mmHg 92%
    02:00 -4°C° 0 mm 1 mps 691 mmHg 91%
    03:00 -4°C° 0 mm 1 mps 690 mmHg 90%
    04:00 -4°C° 0 mm 1 mps 690 mmHg 89%
    05:00 -4°C° 0 mm 1 mps 690 mmHg 87%
    06:00 -4°C° 0 mm 1 mps 689 mmHg 85%
    07:00 -4°C° 0 mm 1 mps 689 mmHg 83%
    08:00 -1°C° 0 mm 1 mps 689 mmHg 81%
    09:00 +1°C° 0 mm 1 mps 690 mmHg 78%
    10:00 +4°C° 0 mm 1 mps 690 mmHg 75%
    11:00 +5°C° 0 mm 1 mps 690 mmHg 74%
    12:00 +6°C° 0 mm 1 mps 690 mmHg 73%
    13:00 +7°C° 0 mm 1 mps 690 mmHg 71%
    14:00 +6°C° 0 mm 1 mps 690 mmHg 76%
    15:00 +6°C° 0 mm 1 mps 689 mmHg 80%
    16:00 +6°C° 0 mm 1 mps 689 mmHg 84%
    17:00 +4°C° 0 mm 1 mps 689 mmHg 87%
    18:00 +2°C° 0 mm 0 mps 688 mmHg 89%
    19:00 0°C° 0 mm 0 mps 688 mmHg 91%
    20:00 0°C° 0 mm 0 mps 688 mmHg 91%
    21:00 0°C° 0 mm 0 mps 688 mmHg 90%
    22:00 0°C° 0 mm 0 mps 688 mmHg 89%
    23:00 0°C° 0 mm 0 mps 688 mmHg 89%

    27 February, Monday

    Time Temperature Precipitation Wind Pressure Humidity
    00:00 0°C° 0 mm 0 mps 688 mmHg 89%
    01:00 +1°C° 0 mm 1 mps 687 mmHg 89%
    02:00 0°C° 0 mm 1 mps 687 mmHg 89%
    03:00 0°C° 0 mm 1 mps 687 mmHg 89%
    04:00 0°C° 0 mm 1 mps 687 mmHg 89%
    05:00 0°C° 0 mm 1 mps 686 mmHg 90%
    06:00 0°C° 0 mm 1 mps 686 mmHg 90%
    07:00 -1°C° 0 mm 1 mps 686 mmHg 90%
    08:00 +2°C° 0 mm 1 mps 687 mmHg 85%
    09:00 +4°C° 0 mm 1 mps 687 mmHg 81%
    10:00 +6°C° 0 mm 1 mps 687 mmHg 76%
    11:00 +7°C° 0 mm 1 mps 687 mmHg 76%
    12:00 +6°C° 0 mm 2 mps 686 mmHg 75%
    13:00 +7°C° 0 mm 2 mps 686 mmHg 75%
    14:00 +6°C° 0 mm 2 mps 685 mmHg 77%
    15:00 +6°C° 0 mm 2 mps 685 mmHg 80%
    16:00 +5°C° 0 mm 2 mps 684 mmHg 83%
    17:00 +4°C° 0 mm 2 mps 684 mmHg 87%
    18:00 +2°C° 0 mm 2 mps 684 mmHg 91%
    19:00 -1°C° 0 mm 2 mps 684 mmHg 95%
    20:00 -1°C° 0 mm 2 mps 683 mmHg 95%
    21:00 -1°C° 0 mm 2 mps 683 mmHg 95%
    22:00 -1°C° 0 mm 2 mps 683 mmHg 95%
    23:00 -1°C° 0 mm 2 mps 683 mmHg 95%

    28 February, Tuesday

    Time Temperature Precipitation Wind Pressure Humidity
    00:00 -1°C° 0 mm 2 mps 683 mmHg 95%
    01:00 -1°C° 0 mm 2 mps 682 mmHg 95%
    02:00 +1°C° 0 mm 2 mps 682 mmHg 96%
    03:00 +1°C° 0 mm 2 mps 682 mmHg 96%
    04:00 +1°C° 0 mm 2 mps 682 mmHg 96%
    05:00 +1°C° 0.1 mm 2 mps 682 mmHg 96%
    06:00 +2°C° 0.1 mm 2 mps 682 mmHg 96%
    07:00 +2°C° 0.1 mm 2 mps 682 mmHg 96%
    08:00 +3°C° 0.2 mm 2 mps 682 mmHg 95%
    09:00 +4°C° 0.2 mm 2 mps 682 mmHg 93%
    10:00 +5°C° 0.2 mm 2 mps 682 mmHg 91%
    11:00 +5°C° 0.6 mm 2 mps 681 mmHg 92%
    12:00 +4°C° 0.6 mm 3 mps 681 mmHg 92%
    13:00 +4°C° 0.6 mm 3 mps 680 mmHg 93%
    14:00 +4°C° 1.2 mm 3 mps 680 mmHg 93%
    15:00 +4°C° 1.2 mm 3 mps 679 mmHg 94%
    16:00 +4°C° 1.2 mm 3 mps 679 mmHg 94%
    17:00 +4°C° 1.3 mm 3 mps 678 mmHg 95%
    18:00 +4°C° 1.3 mm 3 mps 678 mmHg 96%
    19:00 +4°C° 1.3 mm 3 mps 678 mmHg 96%
    20:00 +4°C° 0.9 mm 2 mps 679 mmHg 96%
    21:00 +4°C° 0.9 mm 2 mps 679 mmHg 96%
    22:00 +3°C° 0.9 mm 2 mps 680 mmHg 96%
    23:00 +4°C° 1.2 mm 1 mps 680 mmHg 95%

    1 March, Wednesday

    Time Temperature Precipitation Wind Pressure Humidity
    00:00 +3°C° 1.2 mm 1 mps 680 mmHg 95%
    01:00 +3°C° 1.2 mm 1 mps 680 mmHg 94%
    02:00 +2°C° 0.5 mm 1 mps 681 mmHg 94%
    03:00 +1°C° 0.5 mm 1 mps 681 mmHg 94%
    04:00 0°C° 0.5 mm 1 mps 681 mmHg 94%
    05:00 0°C° 0 mm 1 mps 682 mmHg 93%
    06:00 -1°C° 0 mm 1 mps 682 mmHg 93%
    07:00 -2°C° 0 mm 1 mps 683 mmHg 92%
    08:00 +1°C° 0 mm 1 mps 684 mmHg 89%
    09:00 +3°C° 0 mm 1 mps 685 mmHg 85%
    10:00 +5°C° 0 mm 1 mps 686 mmHg 82%
    11:00 +6°C° 0 mm 1 mps 686 mmHg 81%
    12:00 +7°C° 0 mm 1 mps 686 mmHg 81%
    13:00 +8°C° 0 mm 1 mps 686 mmHg 80%
    14:00 +8°C° 0 mm 1 mps 686 mmHg 82%
    15:00 +8°C° 0 mm 1 mps 686 mmHg 85%
    16:00 +8°C° 0 mm 1 mps 686 mmHg 87%
    17:00 +6°C° 0 mm 1 mps 686 mmHg 90%
    18:00 +5°C° 0 mm 1 mps 686 mmHg 94%
    19:00 +3°C° 0 mm 1 mps 687 mmHg 97%
    20:00 +3°C° 0 mm 1 mps 687 mmHg 97%
    21:00 +3°C° 0 mm 1 mps 687 mmHg 97%
    22:00 +3°C° 0 mm 1 mps 687 mmHg 97%
    23:00 +3°C° 0 mm 1 mps 687 mmHg 96%
    Show more